Location: Unspecified
(35.7250°N, 0.0000°E)
Time: 15:00:53
(UTC+00:00)

Explorer 7 - Pass Details

Date: 18 June 2019
Orbit: 485 x 680 km, 50.3° (Epoch: 25 August)

Event Time Altitude Azimuth Distance (km) Brightness Sun altitude
Rises 11:39:01 0° 280° (W) 2,855 10.4 76.8°
Reaches altitude 10° 11:41:54 10° 299° (WNW) 1,992 9.7 77.0°
Maximum altitude 11:45:06 18° 343° (NNW) 1,554 9.2 77.2°
Drops below altitude 10° 11:48:25 10° 28° (NNE) 2,068 9.8 77.4°
Sets 11:51:29 0° 46° (NE) 3,007 10.5 77.5°
